Theta_e
311 311 312 313 310 313 313 314 315 313 313 313 311 312 312 308 306 306 304 303 303 302 301 303 304 306 307 308 308 309 311 309 311 308 305 301 299 300 304 304 303 301 298 295
312 312 313 313 311 312 313 314 314 312 312 311 312 312 310 308 308 308 308 306 304 300 301 300 302 304 305 305 306 306 306 306 304 304 301 299 296 297 296 296 295 292 291 290
313 314 312 313 313 313 313 313 314 314 314 312 311 314 312 310 308 308 308 308 305 302 302 300 300 302 303 303 304 304 303 302 301 301 298 294 294 291 290 291 289 288 288 289
313 313 314 313 314 314 316 313 314 315 316 317 312 319 315 311 310 309 310 308 304 302 301 300 300 300 302 302 302 302 301 299 299 297 296 296 292 289 287 287 287 287 287 287
315 315 314 315 315 313 315 313 314 314 314 313 314 315 316 312 312 312 312 309 302 301 301 300 299 299 301 301 300 299 298 298 296 294 292 291 289 287 286 286 286 286 286 286
313 311 312 314 312 312 311 313 312 311 312 316 314 315 319 316 315 313 310 304 301 300 300 299 298 298 299 299 298 296 297 295 295 294 292 289 288 286 285 285 285 285 285 285
314 313 312 311 313 312 312 313 317 317 315 319 312 314 317 314 313 312 311 301 299 300 299 297 296 297 298 297 296 295 295 294 293 292 290 288 287 285 285 285 285 284 284 284
315 319 312 310 313 314 311 314 317 318 318 317 312 316 315 311 307 305 306 301 298 299 299 297 296 295 296 296 296 295 294 293 292 292 289 287 286 286 285 285 285 284 284 284
315 316 311 310 311 313 312 315 314 317 304 313 316 315 313 310 307 306 304 299 298 298 297 295 295 294 293 293 294 294 293 292 292 290 288 287 286 286 286 285 285 284 284 283
315 320 311 311 311 311 311 311 315 318 319 320 316 316 319 315 312 306 302 298 297 294 294 292 293 293 293 293 292 292 292 291 290 289 288 287 286 286 285 285 284 284 283 283
314 319 317 311 313 313 314 314 315 316 317 317 316 318 311 313 311 307 303 299 296 294 293 292 291 291 292 292 291 291 290 290 289 288 288 287 286 285 285 284 284 284 283 283
313 318 317 317 311 309 313 315 317 321 319 315 314 321 308 308 306 305 302 299 295 293 292 291 290 290 290 290 290 290 289 289 289 288 288 287 286 285 284 284 283 283 283 283
316 318 321 314 318 314 313 313 315 318 316 321 322 321 305 306 306 304 301 298 294 291 290 289 289 289 288 289 289 289 288 288 288 288 288 286 285 284 284 283 283 283 283 282
317 314 315 318 315 314 313 312 315 318 321 318 321 320 314 309 308 305 301 297 294 292 291 289 289 290 289 288 288 288 288 288 288 287 286 285 284 284 283 283 283 282 282 282
317 320 316 317 316 312 311 312 313 317 318 321 320 317 317 314 311 307 301 298 295 292 291 290 289 290 289 288 288 288 288 288 287 286 285 284 284 283 283 282 282 282 282 281
313 320 314 320 315 314 319 317 312 314 315 318 318 318 315 311 307 305 302 300 297 295 292 291 290 290 289 288 288 288 287 287 287 285 284 283 283 283 282 282 282 282 281 280
315 318 318 320 317 317 319 318 317 317 316 315 317 316 315 312 312 312 303 300 299 297 294 292 290 290 289 289 288 288 287 286 286 285 283 283 282 282 282 282 282 281 281 280
311 315 317 319 316 320 315 305 312 315 315 315 314 314 313 312 311 310 306 303 300 298 295 293 291 290 289 289 288 288 287 286 286 284 284 283 282 282 282 282 281 281 281 281
305 308 314 314 316 311 311 303 308 313 315 312 314 314 313 310 306 305 303 303 302 299 296 294 292 291 289 289 288 288 287 286 286 285 283 282 282 281 282 281 282 282 283 280
303 305 311 312 314 315 307 299 299 302 310 299 307 312 311 302 307 312 304 299 299 298 298 296 293 291 289 289 288 288 287 286 286 285 283 282 282 283 282 283 282 283 284 280
303 304 308 311 313 310 304 298 299 307 309 298 301 302 299 303 306 298 297 297 297 297 297 297 294 291 290 289 288 288 287 286 286 285 284 283 283 284 283 283 283 287 283 279
304 307 307 309 311 311 298 297 307 302 293 294 298 301 300 298 294 293 292 292 293 293 295 296 293 292 290 289 288 288 287 287 286 285 284 283 283 282 282 283 284 288 281 277
305 304 303 307 306 297 293 295 293 291 292 292 295 297 297 293 293 291 290 290 290 290 290 291 291 290 289 289 288 287 287 286 285 284 283 282 282 281 282 282 284 284 278 277
295 294 300 301 300 298 295 293 291 291 291 291 291 294 293 294 290 290 289 288 288 288 287 288 288 286 286 287 287 287 286 286 285 283 281 281 280 280 281 280 284 282 278 276
295 295 295 297 297 294 293 292 293 291 290 289 289 291 292 291 287 288 287 286 286 287 287 287 287 286 286 286 287 287 286 286 283 282 281 281 280 280 279 281 286 282 280 280
291 295 298 298 297 297 298 294 292 291 289 288 288 289 289 289 288 286 285 286 286 286 286 286 287 287 286 286 286 286 285 285 284 281 280 280 279 279 279 282 280 277 278 278
Wind_Speed
0 3 7 13 9 4 4 4 5 5 5 4 8 14 16 10 7 9 10 12 14 14 13 21 19 18 18 17 19 21 24 25 29 32 33 29 30 29 29 29 27 26 25 26
3 8 15 2 7 7 4 5 10 7 5 8 10 14 11 9 11 14 18 17 16 9 11 16 22 22 21 22 22 24 26 29 30 33 28 30 33 31 31 30 28 28 28 28
9 7 6 10 5 6 7 10 5 8 6 4 7 13 11 9 11 13 18 18 15 19 17 13 19 25 22 24 25 27 28 31 29 31 31 34 34 34 34 32 31 29 29 29
7 7 5 5 6 9 8 7 7 6 2 6 2 17 6 7 12 13 20 16 12 16 14 14 20 24 26 24 26 27 28 30 30 32 35 37 33 31 27 37 35 31 29 29
8 6 7 9 7 9 6 5 5 2 2 4 4 4 1 3 7 13 19 12 12 16 19 18 21 25 28 25 25 26 29 29 31 32 30 31 30 35 36 40 37 33 30 28
4 1 5 8 3 7 6 5 6 4 2 7 9 8 32 6 16 8 6 6 14 15 15 14 20 25 25 25 26 27 29 28 30 30 28 30 40 43 42 40 39 34 31 28
1 6 3 4 5 2 5 7 2 3 0 9 3 9 20 8 11 8 9 9 9 13 15 15 16 21 25 26 26 27 29 29 30 29 30 34 38 37 41 43 40 37 32 29
6 5 10 7 11 8 7 9 5 7 4 4 3 8 6 5 7 8 7 8 10 12 13 15 19 24 26 27 28 27 29 28 29 31 32 36 39 42 41 40 39 36 33 29
6 5 2 3 2 11 5 7 7 2 2 1 5 8 11 10 7 3 2 7 10 11 11 13 17 22 25 27 30 32 34 33 35 37 40 40 42 42 40 38 36 34 31 28
5 2 0 1 4 2 7 6 3 2 3 6 5 7 11 7 10 6 6 8 8 8 10 11 17 22 23 26 28 29 34 37 38 39 42 43 41 40 39 38 36 33 30 28
5 4 3 3 6 10 4 3 3 4 4 4 3 7 7 6 6 9 9 9 11 13 13 12 15 21 27 28 28 30 32 34 36 39 42 42 40 39 38 37 35 32 30 27
6 3 4 8 1 1 2 7 6 4 6 5 1 14 2 3 7 6 7 8 8 9 10 10 15 19 23 25 28 31 34 37 39 42 44 44 42 41 38 36 33 31 29 25
6 2 2 5 1 2 6 7 13 12 3 9 5 11 2 3 5 3 5 7 8 9 8 8 13 19 21 22 24 28 32 36 41 45 45 44 44 42 40 37 34 30 28 25
11 5 6 8 4 5 5 8 14 17 7 5 18 20 13 1 2 3 4 7 10 12 14 12 11 18 22 25 28 28 29 36 42 43 43 44 43 41 39 36 33 29 26 23
13 10 10 15 9 5 6 6 18 23 27 12 23 17 33 7 8 9 8 8 12 14 15 16 16 17 25 26 26 28 32 38 40 41 43 44 43 40 38 35 32 28 25 22
2 11 8 15 14 12 18 18 15 17 23 23 26 26 22 5 3 5 10 13 13 14 15 15 15 20 25 29 31 32 34 36 40 38 38 39 42 40 38 35 32 29 25 22
6 6 7 23 11 12 14 34 20 22 18 18 21 29 31 13 15 17 10 12 15 15 16 17 18 23 27 30 33 33 32 33 37 35 34 39 41 40 39 36 33 30 27 23
4 11 10 9 6 13 8 2 14 25 25 24 23 23 23 18 17 16 11 15 16 14 16 17 21 26 30 32 33 33 35 36 36 35 40 42 43 42 39 36 33 30 26 23
7 4 3 4 7 5 3 5 8 10 13 20 21 27 26 11 0 10 9 12 17 19 18 25 33 35 33 34 35 35 36 38 37 38 41 44 44 42 41 39 35 30 25 26
2 1 3 1 3 7 6 3 4 4 9 6 13 22 16 6 4 12 5 6 5 7 13 18 24 27 33 36 37 37 36 37 39 41 41 44 46 46 45 41 37 30 27 30
4 3 8 9 5 4 6 4 4 7 9 4 4 7 7 7 6 2 2 4 2 7 14 18 25 28 33 35 41 39 38 40 44 36 37 42 49 50 47 43 38 29 33 30
8 8 5 4 6 9 6 3 10 2 0 1 2 3 6 3 1 2 4 4 4 4 7 14 22 26 28 34 35 32 34 35 34 38 44 47 51 48 47 44 38 32 36 32
3 6 6 9 7 3 6 3 1 3 1 2 3 2 4 6 4 4 4 3 3 2 4 8 17 20 26 34 37 32 31 34 38 41 41 44 45 45 47 46 39 35 36 34
4 2 2 3 5 6 6 5 3 4 3 0 1 1 3 4 6 5 5 5 4 4 5 9 16 20 22 30 33 30 32 37 40 37 35 37 40 43 46 46 37 36 40 37
4 7 6 4 5 5 8 7 5 6 3 4 2 4 3 4 3 3 3 5 6 8 8 14 18 20 23 26 29 30 31 35 37 34 36 39 38 43 43 43 38 41 43 43
5 6 5 5 7 4 4 2 5 8 8 7 5 2 2 3 5 3 4 6 9 10 10 13 15 16 20 24 27 28 29 33 36 34 35 36 37 39 41 41 36 37 39 37
Wind_Direction
219 126 202 210 200 203 160 190 229 242 230 197 229 238 248 214 230 235 228 215 211 207 172 179 175 172 171 171 172 172 172 167 164 156 146 134 130 133 133 134 135 134 132 129
75 229 224 186 191 207 237 253 260 299 251 189 261 250 242 210 221 220 225 222 209 173 167 173 174 175 177 172 177 175 174 170 162 156 153 143 137 135 132 131 129 128 128 125
179 212 171 178 176 185 226 225 239 228 309 250 295 268 235 244 218 228 235 230 205 189 173 169 173 178 176 177 179 178 174 169 167 165 155 142 137 130 130 131 127 126 126 122
231 232 163 165 201 177 234 200 201 240 306 260 100 293 229 229 232 226 237 229 182 175 169 169 173 176 177 178 180 176 169 168 170 168 157 148 144 135 134 132 130 127 124 120
226 184 184 202 190 169 232 174 198 221 244 337 172 297 23 143 239 241 244 232 184 181 172 171 174 175 177 172 171 170 171 172 171 165 155 149 140 137 134 132 131 127 123 120
224 102 150 193 138 169 147 82 48 57 72 265 183 181 283 212 234 251 280 181 173 170 169 160 163 167 168 166 165 168 166 169 173 167 162 154 146 143 139 137 133 131 127 123
294 216 196 153 107 83 119 105 298 325 34 250 304 209 249 303 287 230 262 195 176 165 160 155 157 161 163 166 165 165 165 164 168 166 164 157 149 146 144 142 140 137 133 129
175 282 168 189 193 179 188 159 166 218 212 280 337 242 253 244 271 301 262 167 156 164 163 161 163 162 165 167 169 167 165 160 168 170 164 159 158 152 150 148 145 142 138 134
186 264 42 176 132 156 194 201 197 66 94 321 227 289 283 257 276 286 164 137 165 166 161 158 159 163 164 165 168 167 168 167 174 174 169 164 163 158 154 151 148 144 141 137
208 232 325 240 113 29 166 162 90 93 213 236 270 264 237 278 260 213 190 187 173 150 156 160 164 165 168 169 167 168 172 170 172 171 169 167 165 161 157 154 151 149 146 144
174 164 239 145 208 177 149 180 202 139 171 200 286 257 211 235 279 232 210 189 182 173 169 169 170 168 168 170 168 168 168 168 168 169 170 169 167 163 160 158 155 153 150 149
203 159 201 208 204 313 339 184 140 183 209 232 151 267 127 230 284 240 204 179 170 172 171 168 164 166 166 167 169 169 170 171 172 173 173 171 168 166 164 161 159 157 154 154
162 228 180 323 29 312 214 200 200 206 60 215 187 258 26 14 9 322 182 159 156 159 161 164 165 172 173 173 174 171 171 170 174 177 176 173 171 169 167 165 163 162 160 158
131 192 206 219 188 131 177 214 209 198 218 194 230 261 249 239 295 248 199 175 170 174 176 174 178 182 180 178 177 175 173 176 177 177 177 173 174 173 169 167 166 166 164 162
171 225 210 243 228 184 193 214 215 208 226 211 252 231 256 222 244 246 187 185 178 182 189 190 184 181 178 179 181 178 177 179 180 178 179 179 177 176 172 170 169 168 169 168
224 227 177 250 239 233 250 242 223 226 236 232 251 258 254 262 302 225 203 192 194 201 199 191 186 183 184 181 181 180 181 182 182 180 181 181 179 178 175 173 173 174 173 174
199 228 226 253 236 227 230 237 228 233 229 228 237 247 263 249 243 244 227 202 204 199 192 190 188 188 186 188 185 184 181 181 181 182 182 185 183 182 180 179 178 179 179 181
192 220 216 241 146 224 236 77 226 228 233 230 239 256 256 248 253 251 231 211 210 198 190 190 186 185 190 187 186 181 180 181 182 182 188 189 188 186 184 183 184 183 185 190
194 144 240 190 218 323 260 196 161 177 245 231 231 247 254 266 338 264 233 214 207 196 195 195 189 187 181 182 181 177 177 182 185 188 190 190 189 187 187 188 188 188 193 199
115 301 205 203 216 212 236 252 159 108 269 208 212 236 255 124 220 261 255 191 195 196 195 185 183 184 176 180 177 177 181 184 192 193 191 191 192 194 193 192 190 193 206 209
159 173 209 228 252 269 251 190 139 137 249 194 189 225 166 192 221 289 358 55 125 173 180 182 176 182 189 179 178 183 186 194 197 190 192 196 200 200 199 195 192 198 212 210
167 165 182 202 240 254 149 86 177 192 90 154 239 221 197 164 153 52 63 67 73 112 145 183 177 186 189 181 181 188 194 197 192 191 193 198 201 200 199 198 199 205 213 210
216 192 180 186 205 211 229 202 142 108 54 348 300 264 183 148 195 168 135 112 78 107 129 171 182 173 183 187 187 186 194 190 189 190 191 197 199 199 203 200 205 204 209 212
282 137 177 89 223 231 233 219 205 168 176 167 176 351 179 171 185 185 162 162 162 157 150 161 163 166 175 189 193 196 191 192 192 188 189 194 195 198 204 205 213 209 209 212
185 141 170 267 268 289 259 226 192 209 197 165 220 168 206 164 219 199 189 181 176 170 173 174 176 180 188 191 197 201 200 196 192 192 196 199 198 202 203 208 218 217 219 221
188 171 175 217 219 189 240 51 172 178 194 182 186 228 224 192 216 196 207 200 186 184 182 184 188 191 193 195 199 203 205 201 198 196 201 201 201 206 209 213 219 221 227 228